Tracking 31027 objects as of 19-Jul-2025
HD Live streaming from Space Station
objects crossing your sky now

H-2A DEB

Track H-2A DEB now!
10-day predictions


NORAD ID: 38347
Int'l Code: 2012-025H
Perigee: 601.0 km
Apogee: 612.1 km
Inclination: 98.2 °
Period: 96.7 minutes
Semi major axis: 6977 km
RCS: 10.6734 m2 (large)
Launch date: May 17, 2012
Source: Japan (JPN)
Launch site: TANEGASHIMA SPACE CENTER (TNSTA)

Note: This is SATELLITE DEBRIS
Your satellite tracking list
No more satellites can be added for tracking (max 5)
SPACE STATION
EYESAT-1
SAUDISAT 1C
FOX-1B (RADFXSAT AO-91)
DOSAAF-85 (RS-44)
Track 5 satellite(s)




NASA's NSSDC Master Catalog

Two Line Element Set (TLE):
1 38347U 12025H   25199.84582227  .00003069  00000-0  32802-3 0  9995
2 38347  98.1751 314.7669 0007946 123.6898 236.5077 14.89533224709116
Source of the keplerian elements: AFSPC